Year,Month,Day,Hour,Minute,Value (Times are PST for temperature in C)
2008,06,30,00,00,15.60
2008,06,30,00,01,15.60
2008,06,30,00,02,15.60
2008,06,30,00,03,15.60
2008,06,30,00,04,15.60
2008,06,30,00,05,15.60
2008,06,30,00,06,15.60
2008,06,30,00,07,15.60
2008,06,30,00,08,15.60
2008,06,30,00,09,15.60
2008,06,30,00,10,15.70
2008,06,30,00,11,15.70
2008,06,30,00,12,15.70
2008,06,30,00,13,15.80
2008,06,30,00,14,15.80
2008,06,30,00,15,15.80
2008,06,30,00,16,15.90
2008,06,30,00,17,16.00
2008,06,30,00,18,16.00
2008,06,30,00,19,16.10
2008,06,30,00,20,16.20
2008,06,30,00,21,16.20
2008,06,30,00,22,16.30
2008,06,30,00,23,16.40
2008,06,30,00,24,16.40
2008,06,30,00,25,16.50
2008,06,30,00,26,16.60
2008,06,30,00,27,16.60
2008,06,30,00,28,16.70
2008,06,30,00,29,16.80
2008,06,30,00,30,16.90
2008,06,30,00,31,17.00
2008,06,30,00,32,17.00
2008,06,30,00,33,17.20
2008,06,30,00,34,17.30
2008,06,30,00,35,17.40
2008,06,30,00,36,17.40
2008,06,30,00,37,17.60
2008,06,30,00,38,17.60
2008,06,30,00,39,17.70
2008,06,30,00,40,17.70
2008,06,30,00,41,17.60
2008,06,30,00,42,17.50
2008,06,30,00,43,17.40
2008,06,30,00,44,17.30
2008,06,30,00,45,17.20
2008,06,30,00,46,17.10
2008,06,30,00,47,17.00
2008,06,30,00,48,16.90
2008,06,30,00,49,16.80
2008,06,30,00,50,16.60
2008,06,30,00,51,16.40
2008,06,30,00,52,16.30
2008,06,30,00,53,16.10
2008,06,30,00,54,16.00
2008,06,30,00,55,15.90
2008,06,30,00,56,15.80
2008,06,30,00,57,15.70
2008,06,30,00,58,15.60
2008,06,30,00,59,15.50
2008,06,30,01,00,15.40
2008,06,30,01,01,15.30
2008,06,30,01,02,15.10
2008,06,30,01,03,15.00
2008,06,30,01,04,15.00
2008,06,30,01,05,15.00
2008,06,30,01,06,14.80
2008,06,30,01,07,14.80
2008,06,30,01,08,14.70
2008,06,30,01,09,14.60
2008,06,30,01,10,14.60
2008,06,30,01,11,14.50
2008,06,30,01,12,14.50
2008,06,30,01,13,14.40
2008,06,30,01,14,14.40
2008,06,30,01,15,14.40
2008,06,30,01,16,14.40
2008,06,30,01,17,14.40
2008,06,30,01,18,14.30
2008,06,30,01,19,14.30
2008,06,30,01,20,14.30
2008,06,30,01,21,14.30
2008,06,30,01,22,14.30
2008,06,30,01,23,14.30
2008,06,30,01,24,14.40
2008,06,30,01,25,14.40
2008,06,30,01,26,14.40
2008,06,30,01,27,14.40
2008,06,30,01,28,14.40
2008,06,30,01,29,14.40
2008,06,30,01,30,14.40
2008,06,30,01,31,14.40
2008,06,30,01,32,14.50
2008,06,30,01,33,14.50
2008,06,30,01,34,14.50
2008,06,30,01,35,14.50
2008,06,30,01,36,14.60
2008,06,30,01,37,14.60
2008,06,30,01,38,14.60
2008,06,30,01,39,14.70
2008,06,30,01,40,14.70
2008,06,30,01,41,14.80
2008,06,30,01,42,14.80
2008,06,30,01,43,14.90
2008,06,30,01,44,14.90
2008,06,30,01,45,15.00
2008,06,30,01,46,15.00
2008,06,30,01,47,15.00
2008,06,30,01,48,15.00
2008,06,30,01,49,15.00
2008,06,30,01,50,15.00
2008,06,30,01,51,15.00
2008,06,30,01,52,15.00
2008,06,30,01,53,15.00
2008,06,30,01,54,15.00
2008,06,30,01,55,15.00
2008,06,30,01,56,15.00
2008,06,30,01,57,15.00
2008,06,30,01,58,15.00
2008,06,30,01,59,15.00
2008,06,30,02,00,15.00
2008,06,30,02,01,15.00
2008,06,30,02,02,15.00
2008,06,30,02,03,15.10
2008,06,30,02,04,15.20
2008,06,30,02,05,15.20
2008,06,30,02,06,15.30
2008,06,30,02,07,15.30
2008,06,30,02,08,15.30
2008,06,30,02,09,15.30
2008,06,30,02,10,15.40
2008,06,30,02,11,15.40
2008,06,30,02,12,15.40
2008,06,30,02,13,15.50
2008,06,30,02,14,15.50
2008,06,30,02,15,15.50
2008,06,30,02,16,15.60
2008,06,30,02,17,15.60
2008,06,30,02,18,15.60
2008,06,30,02,19,15.60
2008,06,30,02,20,15.60
2008,06,30,02,21,15.50
2008,06,30,02,22,15.60
2008,06,30,02,23,15.60
2008,06,30,02,24,15.60
2008,06,30,02,25,15.60
2008,06,30,02,26,15.60
2008,06,30,02,27,15.60
2008,06,30,02,28,15.60
2008,06,30,02,29,15.60
2008,06,30,02,30,15.60
2008,06,30,02,31,15.50
2008,06,30,02,32,15.50
2008,06,30,02,33,15.40
2008,06,30,02,34,15.40
2008,06,30,02,35,15.30
2008,06,30,02,36,15.20
2008,06,30,02,37,15.00
2008,06,30,02,38,15.00
2008,06,30,02,39,15.00
2008,06,30,02,40,14.80
2008,06,30,02,41,14.70
2008,06,30,02,42,14.70
2008,06,30,02,43,14.60
2008,06,30,02,44,14.50
2008,06,30,02,45,14.50
2008,06,30,02,46,14.40
2008,06,30,02,47,14.40
2008,06,30,02,48,14.40
2008,06,30,02,49,14.40
2008,06,30,02,50,14.40
2008,06,30,02,51,14.40
2008,06,30,02,52,14.40
2008,06,30,02,53,14.40
2008,06,30,02,54,14.40
2008,06,30,02,55,14.40
2008,06,30,02,56,14.40
2008,06,30,02,57,14.40
2008,06,30,02,58,14.40
2008,06,30,02,59,14.40
2008,06,30,03,00,14.40
2008,06,30,03,01,14.50
2008,06,30,03,02,14.50
2008,06,30,03,03,14.50
2008,06,30,03,04,14.50
2008,06,30,03,05,14.40
2008,06,30,03,06,14.30
2008,06,30,03,07,14.20
2008,06,30,03,08,14.20
2008,06,30,03,09,14.20
2008,06,30,03,10,14.10
2008,06,30,03,11,14.10
2008,06,30,03,12,14.00
2008,06,30,03,13,14.00
2008,06,30,03,14,13.90
2008,06,30,03,15,13.80
2008,06,30,03,16,13.70
2008,06,30,03,17,13.60
2008,06,30,03,18,13.50
2008,06,30,03,19,13.50
2008,06,30,03,20,13.50
2008,06,30,03,21,13.40
2008,06,30,03,22,13.40
2008,06,30,03,23,13.40
2008,06,30,03,24,13.40
2008,06,30,03,25,13.40
2008,06,30,03,26,13.40
2008,06,30,03,27,13.40
2008,06,30,03,28,13.40
2008,06,30,03,29,13.40
2008,06,30,03,30,13.40
2008,06,30,03,31,13.30
2008,06,30,03,32,13.10
2008,06,30,03,33,12.90
2008,06,30,03,34,12.80
2008,06,30,03,35,12.70
2008,06,30,03,36,12.70
2008,06,30,03,37,12.70
2008,06,30,03,38,12.70
2008,06,30,03,39,12.80
2008,06,30,03,40,12.80
2008,06,30,03,41,12.80
2008,06,30,03,42,12.90
2008,06,30,03,43,12.90
2008,06,30,03,44,12.90
2008,06,30,03,45,13.00
2008,06,30,03,46,13.10
2008,06,30,03,47,13.10
2008,06,30,03,48,13.20
2008,06,30,03,49,13.20
2008,06,30,03,50,13.20
2008,06,30,03,51,13.30
2008,06,30,03,52,13.30
2008,06,30,03,53,13.40
2008,06,30,03,54,13.50
2008,06,30,03,55,13.50
2008,06,30,03,56,13.60
2008,06,30,03,57,13.60
2008,06,30,03,58,13.60
2008,06,30,03,59,13.70
2008,06,30,04,00,13.70
2008,06,30,04,01,13.70
2008,06,30,04,02,13.70
2008,06,30,04,03,13.80
2008,06,30,04,04,13.80
2008,06,30,04,05,13.90
2008,06,30,04,06,13.90
2008,06,30,04,07,14.00
2008,06,30,04,08,14.10
2008,06,30,04,09,14.20
2008,06,30,04,10,14.20
2008,06,30,04,11,14.30
2008,06,30,04,12,14.30
2008,06,30,04,13,14.40
2008,06,30,04,14,14.50
2008,06,30,04,15,14.50
2008,06,30,04,16,14.60
2008,06,30,04,17,14.60
2008,06,30,04,18,14.60
2008,06,30,04,19,14.70
2008,06,30,04,20,14.70
2008,06,30,04,21,14.70
2008,06,30,04,22,14.70
2008,06,30,04,23,14.70
2008,06,30,04,24,14.80
2008,06,30,04,25,14.80
2008,06,30,04,26,14.80
2008,06,30,04,27,14.80
2008,06,30,04,28,14.80
2008,06,30,04,29,14.90
2008,06,30,04,30,14.90
2008,06,30,04,31,15.00
2008,06,30,04,32,15.00
2008,06,30,04,33,15.00
2008,06,30,04,34,15.00
2008,06,30,04,35,15.00
2008,06,30,04,36,15.00
2008,06,30,04,37,15.00
2008,06,30,04,38,15.00
2008,06,30,04,39,15.00
2008,06,30,04,40,15.00
2008,06,30,04,41,15.00
2008,06,30,04,42,15.00
2008,06,30,04,43,15.00
2008,06,30,04,44,15.00
2008,06,30,04,45,15.00
2008,06,30,04,46,15.00
2008,06,30,04,47,15.00
2008,06,30,04,48,15.00
2008,06,30,04,49,15.00
2008,06,30,04,50,15.00
2008,06,30,04,51,15.00
2008,06,30,04,52,15.00
2008,06,30,04,53,15.00
2008,06,30,04,54,15.00
2008,06,30,04,55,15.00
2008,06,30,04,56,14.90
2008,06,30,04,57,14.90
2008,06,30,04,58,14.90
2008,06,30,04,59,14.90
2008,06,30,05,00,14.90
2008,06,30,05,01,14.90
2008,06,30,05,02,14.90
2008,06,30,05,03,14.90
2008,06,30,05,04,14.90
2008,06,30,05,05,14.80
2008,06,30,05,06,14.90
2008,06,30,05,07,14.80
2008,06,30,05,08,14.80
2008,06,30,05,09,14.80
2008,06,30,05,10,14.90
2008,06,30,05,11,14.90
2008,06,30,05,12,14.90
2008,06,30,05,13,14.90
2008,06,30,05,14,14.90
2008,06,30,05,15,14.70
2008,06,30,05,16,14.40
2008,06,30,05,17,14.10
2008,06,30,05,18,13.80
2008,06,30,05,19,13.60
2008,06,30,05,20,13.40
2008,06,30,05,21,13.30
2008,06,30,05,22,13.30
2008,06,30,05,23,13.20
2008,06,30,05,24,13.20
2008,06,30,05,25,13.10
2008,06,30,05,26,13.00
2008,06,30,05,27,13.00
2008,06,30,05,28,12.90
2008,06,30,05,29,12.90
2008,06,30,05,30,12.80
2008,06,30,05,31,12.80
2008,06,30,05,32,12.70
2008,06,30,05,33,12.70
2008,06,30,05,34,12.70
2008,06,30,05,35,12.70
2008,06,30,05,36,12.70
2008,06,30,05,37,12.60
2008,06,30,05,38,12.60
2008,06,30,05,39,12.60
2008,06,30,05,40,12.60
2008,06,30,05,41,12.60
2008,06,30,05,42,12.60
2008,06,30,05,43,12.60
2008,06,30,05,44,12.60
2008,06,30,05,45,12.60
2008,06,30,05,46,12.60
2008,06,30,05,47,12.50
2008,06,30,05,48,12.50
2008,06,30,05,49,12.40
2008,06,30,05,50,12.40
2008,06,30,05,51,12.40
2008,06,30,05,52,12.40
2008,06,30,05,53,12.40
2008,06,30,05,54,12.40
2008,06,30,05,55,12.40
2008,06,30,05,56,12.40
2008,06,30,05,57,12.40
2008,06,30,05,58,12.40
2008,06,30,05,59,12.40
2008,06,30,06,00,12.40
2008,06,30,06,01,12.40
2008,06,30,06,02,12.40
2008,06,30,06,03,12.40
2008,06,30,06,04,12.40
2008,06,30,06,05,12.40
2008,06,30,06,06,12.40
2008,06,30,06,07,12.40
2008,06,30,06,08,12.40
2008,06,30,06,09,12.40
2008,06,30,06,10,12.40
2008,06,30,06,11,12.40
2008,06,30,06,12,12.40
2008,06,30,06,13,12.40
2008,06,30,06,14,12.40
2008,06,30,06,15,12.40
2008,06,30,06,16,12.40
2008,06,30,06,17,12.40
2008,06,30,06,18,12.50
2008,06,30,06,19,12.50
2008,06,30,06,20,12.50
2008,06,30,06,21,12.60
2008,06,30,06,22,12.60
2008,06,30,06,23,12.60
2008,06,30,06,24,12.60
2008,06,30,06,25,12.60
2008,06,30,06,26,12.60
2008,06,30,06,27,12.70
2008,06,30,06,28,12.70
2008,06,30,06,29,12.70
2008,06,30,06,30,12.70
2008,06,30,06,31,12.70
2008,06,30,06,32,12.70
2008,06,30,06,33,12.70
2008,06,30,06,34,12.70
2008,06,30,06,35,12.70
2008,06,30,06,36,12.70
2008,06,30,06,37,12.70
2008,06,30,06,38,12.70
2008,06,30,06,39,12.70
2008,06,30,06,40,12.70
2008,06,30,06,41,12.70
2008,06,30,06,42,12.70
2008,06,30,06,43,12.70
2008,06,30,06,44,12.70
2008,06,30,06,45,12.70
2008,06,30,06,46,12.70
2008,06,30,06,47,12.70
2008,06,30,06,48,12.70
2008,06,30,06,49,12.70
2008,06,30,06,50,12.70
2008,06,30,06,51,12.80
2008,06,30,06,52,12.80
2008,06,30,06,53,12.80
2008,06,30,06,54,12.80
2008,06,30,06,55,12.80
2008,06,30,06,56,12.90
2008,06,30,06,57,12.90
2008,06,30,06,58,12.90
2008,06,30,06,59,13.00
2008,06,30,07,00,13.00
2008,06,30,07,01,13.10
2008,06,30,07,02,13.10
2008,06,30,07,03,13.10
2008,06,30,07,04,13.10
2008,06,30,07,05,13.10
2008,06,30,07,06,13.20
2008,06,30,07,07,13.20
2008,06,30,07,08,13.30
2008,06,30,07,09,13.30
2008,06,30,07,10,13.30
2008,06,30,07,11,13.30
2008,06,30,07,12,13.30
2008,06,30,07,13,13.40
2008,06,30,07,14,13.40
2008,06,30,07,15,13.40
2008,06,30,07,16,13.40
2008,06,30,07,17,13.50
2008,06,30,07,18,13.50
2008,06,30,07,19,13.60
2008,06,30,07,20,13.60
2008,06,30,07,21,13.70
2008,06,30,07,22,13.70
2008,06,30,07,23,13.70
2008,06,30,07,24,13.70
2008,06,30,07,25,13.70
2008,06,30,07,26,13.70
2008,06,30,07,27,13.80
2008,06,30,07,28,13.80
2008,06,30,07,29,13.80
2008,06,30,07,30,13.80
2008,06,30,07,31,13.80
2008,06,30,07,32,13.80
2008,06,30,07,33,13.80
2008,06,30,07,34,13.80
2008,06,30,07,35,13.80
2008,06,30,07,36,13.70
2008,06,30,07,37,13.70
2008,06,30,07,38,13.70
2008,06,30,07,39,13.60
2008,06,30,07,40,13.60
2008,06,30,07,41,13.60
2008,06,30,07,42,13.50
2008,06,30,07,43,13.40
2008,06,30,07,44,13.40
2008,06,30,07,45,13.30
2008,06,30,07,46,13.20
2008,06,30,07,47,13.10
2008,06,30,07,48,13.00
2008,06,30,07,49,12.90
2008,06,30,07,50,12.90
2008,06,30,07,51,12.80
2008,06,30,07,52,12.80
2008,06,30,07,53,12.80
2008,06,30,07,54,12.80
2008,06,30,07,55,12.80
2008,06,30,07,56,12.80
2008,06,30,07,57,12.80
2008,06,30,07,58,12.80
2008,06,30,07,59,12.80
2008,06,30,08,00,12.90
2008,06,30,08,01,12.90
2008,06,30,08,02,13.00
2008,06,30,08,03,13.00
2008,06,30,08,04,13.10
2008,06,30,08,05,13.20
2008,06,30,08,06,13.30
2008,06,30,08,07,13.30
2008,06,30,08,08,13.40
2008,06,30,08,09,13.50
2008,06,30,08,10,13.60
2008,06,30,08,11,13.60
2008,06,30,08,12,13.70
2008,06,30,08,13,13.80
2008,06,30,08,14,13.90
2008,06,30,08,15,14.00
2008,06,30,08,16,14.00
2008,06,30,08,17,14.10
2008,06,30,08,18,14.20
2008,06,30,08,19,14.20
2008,06,30,08,20,14.30
2008,06,30,08,21,14.30
2008,06,30,08,22,14.40
2008,06,30,08,23,14.40
2008,06,30,08,24,14.40
2008,06,30,08,25,14.40
2008,06,30,08,26,14.40
2008,06,30,08,27,14.40
2008,06,30,08,28,14.40
2008,06,30,08,29,14.40
2008,06,30,08,30,14.40
2008,06,30,08,31,14.40
2008,06,30,08,32,14.30
2008,06,30,08,33,14.10
2008,06,30,08,34,14.00
2008,06,30,08,35,13.80
2008,06,30,08,36,13.80
2008,06,30,08,37,13.70
2008,06,30,08,38,13.50
2008,06,30,08,39,13.50
2008,06,30,08,40,13.40
2008,06,30,08,41,13.30
2008,06,30,08,42,13.30
2008,06,30,08,43,13.20
2008,06,30,08,44,13.20
2008,06,30,08,45,13.20
2008,06,30,08,46,13.20
2008,06,30,08,47,13.20
2008,06,30,08,48,13.20
2008,06,30,08,49,13.20
2008,06,30,08,50,13.20
2008,06,30,08,51,13.20
2008,06,30,08,52,13.20
2008,06,30,08,53,13.20
2008,06,30,08,54,13.30
2008,06,30,08,55,13.30
2008,06,30,08,56,13.30
2008,06,30,08,57,13.30
2008,06,30,08,58,13.30
2008,06,30,08,59,13.40
2008,06,30,09,00,13.40
2008,06,30,09,01,13.50
2008,06,30,09,02,13.50
2008,06,30,09,03,13.60
2008,06,30,09,04,13.70
2008,06,30,09,05,13.90
2008,06,30,09,06,14.00
2008,06,30,09,07,14.10
2008,06,30,09,08,14.20
2008,06,30,09,09,14.40
2008,06,30,09,10,14.50
2008,06,30,09,11,14.70
2008,06,30,09,12,15.00
2008,06,30,09,13,15.00
2008,06,30,09,14,15.20
2008,06,30,09,15,15.30
2008,06,30,09,16,15.50
2008,06,30,09,17,15.60
2008,06,30,09,18,15.70
2008,06,30,09,19,15.90
2008,06,30,09,20,16.00
2008,06,30,09,21,16.10
2008,06,30,09,22,16.20
2008,06,30,09,23,16.30
2008,06,30,09,24,16.50
2008,06,30,09,25,16.60
2008,06,30,09,26,16.70
2008,06,30,09,27,16.80
2008,06,30,09,28,16.80
2008,06,30,09,29,16.90
2008,06,30,09,30,17.00
2008,06,30,09,31,17.10
2008,06,30,09,32,17.20
2008,06,30,09,33,17.20
2008,06,30,09,34,17.30
2008,06,30,09,35,17.30
2008,06,30,09,36,17.30
2008,06,30,09,37,17.30
2008,06,30,09,38,17.30
2008,06,30,09,39,17.20
2008,06,30,09,40,17.10
2008,06,30,09,41,17.10
2008,06,30,09,42,17.10
2008,06,30,09,43,17.00
2008,06,30,09,44,17.00
2008,06,30,09,45,16.90
2008,06,30,09,46,16.90
2008,06,30,09,47,16.90
2008,06,30,09,48,16.80
2008,06,30,09,49,16.80
2008,06,30,09,50,16.80
2008,06,30,09,51,16.90
2008,06,30,09,52,16.90
2008,06,30,09,53,16.90
2008,06,30,09,54,16.90
2008,06,30,09,55,17.00
2008,06,30,09,56,17.10
2008,06,30,09,57,17.10
2008,06,30,09,58,17.20
2008,06,30,09,59,17.10
2008,06,30,10,00,17.10
2008,06,30,10,01,17.10
2008,06,30,10,02,17.10
2008,06,30,10,03,17.10
2008,06,30,10,04,17.10
2008,06,30,10,05,17.10
2008,06,30,10,06,17.10
2008,06,30,10,07,17.10
2008,06,30,10,08,17.20
2008,06,30,10,09,17.30
2008,06,30,10,10,17.40
2008,06,30,10,11,17.50
2008,06,30,10,12,17.60
2008,06,30,10,13,17.70
2008,06,30,10,14,17.80
2008,06,30,10,15,17.90
2008,06,30,10,16,18.10
2008,06,30,10,17,18.10
2008,06,30,10,18,18.20
2008,06,30,10,19,18.00
2008,06,30,10,20,17.90
2008,06,30,10,21,17.80
2008,06,30,10,22,17.40
2008,06,30,10,23,17.20
2008,06,30,10,24,16.80
2008,06,30,10,25,16.30
2008,06,30,10,26,16.00
2008,06,30,10,27,15.80
2008,06,30,10,28,15.80
2008,06,30,10,29,15.80
2008,06,30,10,30,15.80
2008,06,30,10,31,15.90
2008,06,30,10,32,15.90
2008,06,30,10,33,15.90
2008,06,30,10,34,15.80
2008,06,30,10,35,15.90
2008,06,30,10,36,15.90
2008,06,30,10,37,16.00
2008,06,30,10,38,16.10
2008,06,30,10,39,16.20
2008,06,30,10,40,16.20
2008,06,30,10,41,16.20
2008,06,30,10,42,16.10
2008,06,30,10,43,16.00
2008,06,30,10,44,15.90
2008,06,30,10,45,15.80
2008,06,30,10,46,15.80
2008,06,30,10,47,15.70
2008,06,30,10,48,15.60
2008,06,30,10,49,15.30
2008,06,30,10,50,15.10
2008,06,30,10,51,15.00
2008,06,30,10,52,15.00
2008,06,30,10,53,15.00
2008,06,30,10,54,15.20
2008,06,30,10,55,15.30
2008,06,30,10,56,15.50
2008,06,30,10,57,15.80
2008,06,30,10,58,16.00
2008,06,30,10,59,16.30
2008,06,30,11,00,16.60
2008,06,30,11,01,16.80
2008,06,30,11,02,17.10
2008,06,30,11,03,17.40
2008,06,30,11,04,17.60
2008,06,30,11,05,17.70
2008,06,30,11,06,17.80
2008,06,30,11,07,18.00
2008,06,30,11,08,18.10
2008,06,30,11,09,18.40
2008,06,30,11,10,18.50
2008,06,30,11,11,18.70
2008,06,30,11,12,18.90
2008,06,30,11,13,19.10
2008,06,30,11,14,19.20
2008,06,30,11,15,19.40
2008,06,30,11,16,19.50
2008,06,30,11,17,19.70
2008,06,30,11,18,19.80
2008,06,30,11,19,19.90
2008,06,30,11,20,20.00
2008,06,30,11,21,20.10
2008,06,30,11,22,20.10
2008,06,30,11,23,20.10
2008,06,30,11,24,20.20
2008,06,30,11,25,20.20
2008,06,30,11,26,20.30
2008,06,30,11,27,20.50
2008,06,30,11,28,20.60
2008,06,30,11,29,20.70
2008,06,30,11,30,20.70
2008,06,30,11,31,20.70
2008,06,30,11,32,20.70
2008,06,30,11,33,20.70
2008,06,30,11,34,20.80
2008,06,30,11,35,20.80
2008,06,30,11,36,20.90
2008,06,30,11,37,20.90
2008,06,30,11,38,21.00
2008,06,30,11,39,21.10
2008,06,30,11,40,21.30
2008,06,30,11,41,21.40
2008,06,30,11,42,21.40
2008,06,30,11,43,21.50
2008,06,30,11,44,21.70
